Notices

What's New in latest Release from April 7th, 2021:

- Updated Glossary, including Speed of Maximum Gust, and Total Hourly Precipitation

- Updated national and regional climate services offices contacts and prices information

- Addition of station inventory lists for 1981-2010, 1971-2000, and 1961-1990 Normals.

If you haven't already, please take our survey and provide feedback about our website: https://eccc.sondage-survey.ca/f/LanguageSelection.aspx?s=442ca660-fcf1-47c0-95a9-59707d6fd709

Hourly Data Report for July 22, 2018

OTTAWA INTL A
ONTARIO
Current Station Operator: NAVCAN

45°19'00.000" N
75°40'00.000" W
114.90 m
6106001
71628
YOW

Download Data

Hourly Data (July 2018)
Hourly Data Report for July 22, 2018
TIME
LST
Temp Definition
°C
Dew Point Definition
°C
Rel Hum Definition
%
Precip. Amount Definition
mm

Wind Dir Definition
10's deg

Wind Spd Definition
km/h
Visibility Definition
km
Stn Press Definition
kPa
Hmdx Definition


Wind Chill Definition


Weather Definition


00:00 18.9 12.9 68   10 12 24.1 100.24     LegendNANA
01:00 19.3 13.2 67   9 14 24.1 100.22     Mostly Cloudy
02:00 17.3 12.3 73   10 12 24.1 100.21     LegendNANA
03:00 17.8 13.3 75   6 15 24.1 100.19     LegendNANA
04:00 17.2 13.5 79   7 16 24.1 100.19     Mostly Cloudy
05:00 16.9 13.4 80   5 21 24.1 100.14     LegendNANA
06:00 17.5 13.2 76   5 21 24.1 100.14     LegendNANA
07:00 18.4 12.3 67   7 23 24.1 100.15     Mostly Cloudy
08:00 19.1 11.9 63   7 27 24.1 100.15     Rain
09:00 17.9 14.4 80   7 34 24.1 100.16     Rain
10:00 17.1 15.6 90   6 36 24.1 100.08     Rain
11:00 17.2 15.9 92   7 33 4.0 100.16     Rain,Fog
12:00 17.9 16.3 91   6 34 24.1 100.11     Rain
13:00 19.9 16.4 80   7 28 24.1 100.10     Cloudy
14:00 22.1 17.1 73   7 31 24.1 100.06 27   LegendNANA
15:00 23.5 17.4 68   7 32 24.1 100.04 29   LegendNANA
16:00 23.9 17.7 68   6 31 24.1 100.03 30   Mainly Clear
17:00 24.4 18.2 68   7 29 24.1 100.04 31   LegendNANA
18:00 24.3 18.8 71   6 25 24.1 100.08 31   LegendNANA
19:00 23.0 19.0 78   5 23 24.1 100.12 30   Mostly Cloudy
20:00 22.5 19.1 81   5 22 24.1 100.19 29   LegendNANA
21:00 21.5 19.9 91   10 9 6.4 100.36 29   Moderate Rain Showers,Fog
22:00 20.9 19.7 93   6 18 24.1 100.28 28   Mostly Cloudy
23:00 21.5 20.1 91   8 21 24.1 100.33 29   LegendNANA

Notes on Data Quality.

Legend

  • E = Estimated
  • M = Missing
  • NA = Not Available*
  • [empty] = Indicates an unobserved value
Date modified: